Location: Houston
(29.7630°N, 95.3630°W)
Time: 17:47:22
(UTC-06:00)

Daily predictions for brighter satellites

Satellite Brightness Start Highest point End
(mag) Time Altitude Azimuth Time Altitude Azimuth Time Altitude Azimuth
Cosmos 2181 Rocket 4.3 17:37:10 10° S 17:43:27 81° W 17:49:52 10° N
CZ-3B DEB 2.0 17:42:55 10° WSW 17:45:35 50° NW 17:51:44 10° NE
OTV 4 1.9 17:44:18 10° NW 17:46:48 23° N 17:49:18 10° ENE
Meteor 1-5 Rocket 4.2 17:41:52 10° N 17:47:14 60° E 17:52:46 10° SSE
Cosmos 2218 Rocket 4.3 17:43:52 10° N 17:49:50 44° E 17:55:41 10° SSE
SKYMED 2 4.2 17:49:48 10° NNE 17:53:47 35° E 17:57:44 10° SSE
Cosmos 1455 Rocket 3.8 17:51:34 10° NNE 17:55:27 30° E 17:59:22 10° SE
Delta 2 Rocket 3.7 17:58:16 10° SW 18:01:57 49° SSE 18:05:40 12° ENE
NOSS 3-3 (A) 4.0 17:56:05 10° SSW 18:02:06 68° ESE 18:08:28 10° NE
NOSS 3-3 (C) 4.0 17:56:12 10° SSW 18:02:13 67° ESE 18:08:34 10° NE
SL-8 R/B 4.1 17:59:35 10° WSW 18:04:18 61° NW 18:09:02 10° NE
BREEZE-M DEB (TANK) 3.3 17:59:22 10° NW 18:04:33 52° NE 18:08:05 10° ESE
NOSS 3-1 (A) 4.5 17:57:01 10° NNW 18:04:56 74° WSW 18:13:21 10° SSE
Okean 1 3.5 18:04:25 10° SSE 18:08:18 49° E 18:12:12 10° NNE
Hubble Space Telescope 2.0 18:09:28 10° W 18:13:22 39° SSW 18:17:14 10° SE
Cosmos 1500 4.4 18:11:38 10° NNE 18:14:39 22° E 18:17:41 10° SE
ATLAS 2AS CENTAUR R/B 3.3 18:09:30 10° NNW 18:17:02 43° NE 18:24:01 10° SE
Meteor 1-18 Rocket 4.3 18:12:20 10° S 18:17:55 87° W 18:23:38 10° N
Meteor 1-28 Rocket 3.8 18:15:04 10° NNE 18:18:31 35° E 18:21:59 10° SSE
SL-08 R/B 4.5 18:15:52 10° N 18:22:14 80° E 18:28:29 10° S
Cosmos 2251 Rocket 3.6 18:18:05 10° N 18:23:18 52° ENE 18:28:28 10° SSE
Cosmos 1812 3.5 18:24:55 10° SSW 18:28:40 52° W 18:32:27 10° N
Cosmos 1346 Rocket 2.8 18:25:21 10° S 18:29:14 58° E 18:32:45 12° NNE
SL-27 R/B 2.4 18:28:22 10° NNW 18:32:02 85° ENE 18:35:38 10° SSE
MSX 4.0 18:26:30 10° S 18:32:15 80° WSW 18:38:01 10° NNW
Tiangong 1 0.9 18:30:10 10° WSW 18:33:11 78° NNW 18:34:09 39° NE
CZ-4 R/B 3.9 18:30:02 10° SSW 18:33:31 25° W 18:37:00 10° NW
EP 1 4.2 18:31:55 10° SSW 18:34:49 66° ESE 18:35:19 50° ENE
Nadezhda 3 Rocket 3.9 18:31:34 10° S 18:37:37 64° E 18:43:46 10° NNE
COSMO-SKYMED 1 3.2 18:37:34 10° N 18:41:49 55° WNW 18:46:02 10° SSW
CZ-2C R/B 4.3 18:39:03 10° SSW 18:43:23 32° W 18:47:52 10° NW
SL-24 R/B - RUBIN 2 4.4 18:37:43 10° SSW 18:43:44 79° ESE 18:48:47 18° NNE
GEOS 3 Rocket 3.8 18:39:13 10° SE 18:44:05 46° NE 18:48:57 10° NNW
Meteor 2-21 4.4 18:38:33 10° N 18:44:38 59° E 18:50:39 10° SSE
Cosmos 2297 3.6 18:50:09 10° SSW 18:55:48 84° ESE 18:59:27 23° NNE
Cosmos 1975 3.1 18:51:59 10° N 18:56:02 70° W 19:00:02 10° S
ATLAS 3B CENTAUR R/B 3.4 18:36:53 10° WSW 18:56:20 79° S 19:00:10 32° E
NOSS 2-1 (D) 3.0 18:56:47 10° SSW 19:00:35 73° ESE 19:00:46 71° E
NOSS 2-1 (C) 3.1 18:57:28 10° SSW 19:01:18 72° ESE 19:01:25 71° E
Meteor 1-19 Rocket 4.2 19:01:47 10° S 19:07:31 86° E 19:12:12 16° N
Meteor 2-14 Rocket 4.3 19:02:27 10° N 19:08:36 69° E 19:14:41 10° SSE
Cosmos 2056 Rocket 4.2 19:05:16 10° S 19:09:11 36° SE 19:09:11 36° SE
Cosmos 2278 Rocket 3.9 19:07:42 10° SW 19:12:34 29° WNW 19:17:28 10° N
Cosmos 1025 Rocket 3.3 19:11:55 10° S 19:15:22 55° SSE 19:15:22 55° SSE
NOSS 2-1 (E) 3.6 19:16:01 10° SW 19:19:19 61° WSW 19:19:19 61° WSW
Okean 1-7 Rocket 4.4 19:17:35 10° SSW 19:22:00 52° W 19:24:14 27° NNW
OTV 4 3.2 19:20:30 10° WNW 19:21:18 17° WNW 19:21:18 17° WNW
FALCON 9 R/B 3.1 19:03:12 10° W 19:24:25 69° NNW 19:26:28 49° NE
Cosmos 1624 Rocket 4.4 19:19:23 10° S 19:23:18 49° SSE 19:23:18 49° SSE
Cosmos 921 Rocket 3.7 19:20:47 10° SSW 19:24:51 50° WNW 19:25:22 47° NW
Cosmos 1371 Rocket 3.9 19:22:54 10° SSW 19:28:14 89° ESE 19:28:19 87° NE
Meteor 2-16 Rocket 4.3 19:24:01 10° N 19:30:06 85° W 19:36:11 10° S
Mugunghwa Rocket 4.3 19:23:28 10° WSW 19:31:18 68° S 19:32:41 56° ESE
Meteor 1-23 Rocket 4.2 19:33:44 10° S 19:39:30 80° W 19:39:45 78° NW
Cosmos 2082 Rocket 4.1 19:38:26 10° NNW 19:39:41 17° N 19:39:41 17° N
Timation 2 Rocket 4.2 19:38:56 10° NNW 19:44:53 68° N 19:44:53 68° N
Hubble Space Telescope 3.6 19:52:15 10° SW 19:53:39 13° SW 19:53:39 13° SW
ATLAS 2AS CENTAUR R/B 4.3 20:00:58 10° NW 20:07:46 34° WSW 20:14:05 10° S
